Página principal
METAR-TAF:

METAR-TAF

Aeroportos :

Payam

Karaj, Irão

latitude: 35-46-34N, longitude: 050-49-36E, altura: 1271 m

Observação actual do tempo

O boletim foi feito há 8 horas e 43 minutos, às 18:00 UTC
Vento 4 kt de es-sudeste
Temperatura 13°C
Humidade 38%
Pressão 1014 hPa
Visibilidade 10 km ou mais
Poucas nuvensa uma altura de 4000 ft
Nuvens dispersasa uma altura de 10000 ft

METAR: OIIP 181800Z 12004KT 9999 FEW040 SCT100 13/M01 Q1014

Hora: 07:13 (02:43 UTC)


TAF: em falta

Observações e previsões do tempo de mais de 4000 aeroportos (mensagens METAR e TAF).

As estações disponíveis são os pontos amarelos e vermelhos sobre o mapa.

Mova o rato sobre o mapa para ver o nome da estação.

Depois clique no ponto para visualizar as observações e previsões meteorológicas.

Para alterar o mapa : clique nos botões verdes com uma cruz preta para aumentar o zoom; no botão verde com uma pitada de zoom; ou nas setas verdes para mapas adjacentes.


METAR-TAF: